| time (UTC) | temp F | wind direction | speed MPH | gust MPH | rain 1hr in | rain 24hr in | rain mn in | humidity % | barometer mb |
| 20260831005838 | 65 | 162 | 0.0 | 0.0 | 0.00 | 0.04 | 0.04 | 99 | 1021.3 |
| 20260831005333 | 65 | 165 | 0.0 | 0.0 | 0.00 | 0.04 | 0.04 | 99 | 1021.3 |
| 20260831004828 | 65 | 162 | 0.0 | 0.0 | 0.00 | 0.04 | 0.04 | 99 | 1021.3 |
| 20260831004324 | 65 | 161 | 0.0 | 0.0 | 0.00 | 0.04 | 0.04 | 99 | 1021.3 |
| 20260831003820 | 65 | 161 | 0.0 | 0.0 | 0.00 | 0.04 | 0.04 | 99 | 1021.7 |
| 20260831003316 | 65 | 161 | 0.0 | 0.0 | 0.00 | 0.04 | 0.04 | 99 | 1021.3 |
| 20260831002815 | 65 | 161 | 0.0 | 0.0 | 0.00 | 0.04 | 0.04 | 99 | 1021.3 |
| 20260831002314 | 65 | 161 | 0.0 | 0.0 | 0.00 | 0.04 | 0.04 | 99 | 1021.0 |
| 20260831001810 | 65 | 168 | 0.0 | 0.0 | 0.00 | 0.04 | 0.04 | 99 | 1021.0 |
| 20260831001305 | 65 | 157 | 0.0 | 0.0 | 0.00 | 0.04 | 0.04 | 99 | 1021.0 |
| 20260831000803 | 66 | 161 | 0.0 | 0.0 | 0.00 | 0.04 | 0.04 | 99 | 1021.0 |
| 20260831000303 | 66 | 168 | 0.0 | 0.0 | 0.00 | 0.04 | 0.04 | 99 | 1021.0 |
| 20260830235801 | 66 | 165 | 0.0 | 0.0 | 0.00 | 0.04 | 0.04 | 99 | 1020.6 |
| 20260830235256 | 66 | 161 | 0.0 | 0.0 | 0.00 | 0.04 | 0.04 | 99 | 1021.0 |
| 20260830234751 | 66 | 161 | 0.0 | 0.0 | 0.00 | 0.04 | 0.04 | 99 | 1021.0 |
| 20260830234247 | 67 | 161 | 0.0 | 0.0 | 0.00 | 0.04 | 0.04 | 99 | 1020.6 |
| 20260830233742 | 67 | 161 | 0.0 | 0.0 | 0.00 | 0.04 | 0.04 | 99 | 1020.6 |
| 20260830233238 | 67 | 162 | 0.0 | 0.0 | 0.00 | 0.04 | 0.04 | 99 | 1020.3 |
| 20260830232733 | 67 | 158 | 0.0 | 0.0 | 0.00 | 0.04 | 0.04 | 99 | 1020.6 |
| 20260830232229 | 67 | 167 | 0.0 | 0.0 | 0.00 | 0.04 | 0.04 | 99 | 1020.6 |
| 20260830231725 | 67 | 161 | 0.0 | 0.0 | 0.00 | 0.04 | 0.04 | 99 | 1020.6 |
| 20260830231225 | 67 | 161 | 0.0 | 0.0 | 0.00 | 0.04 | 0.04 | 99 | 1020.3 |
| 20260830230720 | 67 | 161 | 0.0 | 0.0 | 0.00 | 0.04 | 0.04 | 99 | 1020.6 |
| 20260830230215 | 67 | 173 | 0.0 | 0.0 | 0.00 | 0.04 | 0.04 | 99 | 1020.3 |
| 20260830225709 | 67 | 161 | 0.0 | 0.0 | 0.00 | 0.04 | 0.04 | 99 | 1020.6 |
| 20260830225209 | 67 | 157 | 0.0 | 0.0 | 0.00 | 0.04 | 0.04 | 99 | 1020.3 |
| 20260830224708 | 67 | 167 | 0.0 | 0.0 | 0.00 | 0.04 | 0.04 | 99 | 1020.6 |
| 20260830224204 | 67 | 155 | 0.0 | 0.0 | 0.00 | 0.04 | 0.04 | 99 | 1020.6 |
| 20260830223701 | 67 | 154 | 0.0 | 0.0 | 0.00 | 0.04 | 0.04 | 99 | 1020.6 |
| 20260830223156 | 67 | 142 | 0.0 | 0.0 | 0.00 | 0.04 | 0.04 | 99 | 1020.3 |
| 20260830222656 | 67 | 165 | 0.0 | 0.0 | 0.00 | 0.04 | 0.04 | 99 | 1020.6 |
| 20260830222151 | 67 | 174 | 1.0 | 2.0 | 0.00 | 0.04 | 0.04 | 99 | 1020.6 |
| 20260830221647 | 67 | 170 | 0.0 | 0.0 | 0.00 | 0.04 | 0.04 | 99 | 1020.3 |
| 20260830221143 | 66 | 164 | 0.0 | 0.0 | 0.00 | 0.04 | 0.04 | 99 | 1020.6 |
| 20260830220639 | 66 | 166 | 0.0 | 0.0 | 0.00 | 0.04 | 0.04 | 99 | 1020.3 |
| 20260830220138 | 66 | 181 | 1.0 | 1.0 | 0.00 | 0.04 | 0.04 | 99 | 1020.3 |
| 20260830215637 | 66 | 157 | 0.0 | 0.0 | 0.00 | 0.04 | 0.04 | 99 | 1020.3 |
| 20260830215137 | 66 | 177 | 1.0 | 1.0 | 0.00 | 0.04 | 0.04 | 99 | 1020.3 |
| 20260830214632 | 66 | 169 | 0.0 | 0.0 | 0.00 | 0.04 | 0.04 | 99 | 1020.3 |
| 20260830214127 | 66 | 165 | 0.0 | 0.0 | 0.00 | 0.04 | 0.04 | 99 | 1020.3 |
| 20260830213626 | 66 | 165 | 0.0 | 0.0 | 0.00 | 0.04 | 0.04 | 99 | 1020.6 |
| 20260830213122 | 66 | 165 | 1.0 | 1.0 | 0.00 | 0.04 | 0.04 | 99 | 1020.3 |
| 20260830212618 | 66 | 164 | 0.0 | 0.0 | 0.00 | 0.04 | 0.04 | 99 | 1020.6 |
| 20260830212113 | 66 | 138 | 0.0 | 0.0 | 0.00 | 0.04 | 0.04 | 99 | 1020.6 |
| 20260830211608 | 66 | 159 | 0.0 | 0.0 | 0.00 | 0.04 | 0.04 | 99 | 1020.3 |
| 20260830211107 | 66 | 164 | 0.0 | 0.0 | 0.00 | 0.04 | 0.04 | 99 | 1020.6 |
| 20260830210602 | 66 | 157 | 0.0 | 0.0 | 0.00 | 0.04 | 0.04 | 99 | 1020.6 |
| 20260830205559 | 66 | 159 | 0.0 | 0.0 | 0.00 | 0.04 | 0.04 | 99 | 1021.0 |
| 20260830205055 | 66 | 162 | 0.0 | 0.0 | 0.00 | 0.04 | 0.04 | 99 | 1021.0 |
| 20260830204554 | 66 | 161 | 0.0 | 0.0 | 0.00 | 0.04 | 0.04 | 99 | 1020.6 |
| 20260830204053 | 66 | 151 | 0.0 | 1.0 | 0.00 | 0.04 | 0.04 | 99 | 1021.0 |
| 20260830203550 | 66 | 147 | 0.0 | 0.0 | 0.00 | 0.04 | 0.04 | 99 | 1021.0 |
| 20260830203050 | 66 | 159 | 0.0 | 0.0 | 0.00 | 0.04 | 0.04 | 99 | 1021.0 |
| 20260830202550 | 66 | 162 | 0.0 | 0.0 | 0.00 | 0.04 | 0.04 | 99 | 1020.3 |
| 20260830202046 | 66 | 162 | 0.0 | 0.0 | 0.00 | 0.04 | 0.04 | 99 | 1020.6 |
| 20260830201545 | 66 | 165 | 0.0 | 1.0 | 0.00 | 0.04 | 0.04 | 99 | 1020.6 |
| 20260830201040 | 66 | 171 | 0.0 | 0.0 | 0.00 | 0.04 | 0.04 | 99 | 1020.6 |
| 20260830200536 | 66 | 156 | 0.0 | 0.0 | 0.07 | 0.04 | 0.04 | 99 | 1021.0 |
| 20260830200034 | 66 | 160 | 0.0 | 0.0 | 0.00 | 0.03 | 0.03 | 99 | 1020.6 |
| 20260830195531 | 66 | 161 | 0.0 | 0.0 | 0.00 | 0.03 | 0.03 | 99 | 1020.6 |
| 20260830195028 | 66 | 148 | 0.0 | 1.0 | 0.00 | 0.03 | 0.03 | 99 | 1021.0 |
| 20260830194522 | 66 | 162 | 0.0 | 0.0 | 0.00 | 0.03 | 0.03 | 99 | 1021.0 |
| 20260830194016 | 66 | 158 | 0.0 | 0.0 | 0.00 | 0.03 | 0.03 | 99 | 1020.6 |
| 20260830193516 | 66 | 158 | 0.0 | 0.0 | 0.00 | 0.03 | 0.03 | 99 | 1021.0 |
| 20260830193011 | 66 | 166 | 0.0 | 0.0 | 0.05 | 0.03 | 0.03 | 99 | 1021.0 |
| 20260830192506 | 66 | 155 | 0.0 | 0.0 | 0.00 | 0.02 | 0.02 | 99 | 1021.0 |
| 20260830192001 | 66 | 181 | 0.0 | 0.0 | 0.00 | 0.02 | 0.02 | 99 | 1021.0 |
| 20260830191456 | 66 | 158 | 0.0 | 0.0 | 0.00 | 0.02 | 0.02 | 99 | 1021.3 |
| 20260830190951 | 66 | 136 | 1.0 | 1.0 | 0.07 | 0.02 | 0.02 | 99 | 1021.0 |
| 20260830190447 | 65 | 227 | 1.0 | 2.0 | 0.07 | 0.02 | 0.02 | 99 | 1021.3 |
| 20260830185945 | 66 | 127 | 0.0 | 0.0 | 0.00 | 0.01 | 0.01 | 99 | 1021.7 |
| 20260830185441 | 65 | 160 | 0.0 | 0.0 | 0.00 | 0.01 | 0.01 | 99 | 1021.3 |
| 20260830184936 | 65 | 160 | 0.0 | 0.0 | 0.00 | 0.01 | 0.01 | 99 | 1021.7 |
| 20260830184435 | 66 | 249 | 1.0 | 2.0 | 0.00 | 0.01 | 0.01 | 99 | 1021.3 |
| 20260830183930 | 66 | 314 | 2.0 | 2.0 | 0.00 | 0.01 | 0.01 | 99 | 1021.7 |
| 20260830183429 | 66 | 4 | 3.0 | 3.0 | 0.00 | 0.01 | 0.01 | 99 | 1021.7 |
| 20260830182925 | 66 | 268 | 1.0 | 1.0 | 0.00 | 0.01 | 0.01 | 99 | 1021.3 |
| 20260830182421 | 66 | 295 | 4.0 | 5.0 | 0.00 | 0.01 | 0.01 | 99 | 1021.7 |
| 20260830181917 | 66 | 199 | 2.0 | 3.0 | 0.00 | 0.01 | 0.01 | 98 | 1021.3 |
| 20260830181412 | 66 | 141 | 1.0 | 2.0 | 0.07 | 0.01 | 0.01 | 98 | 1021.7 |
| 20260830180907 | 66 | 142 | 3.0 | 5.0 | 0.07 | 0.01 | 0.01 | 97 | 1021.3 |
| 20260830180406 | 66 | 300 | 3.0 | 3.0 | 0.00 | 0.00 | 0.00 | 96 | 1021.3 |
| 20260830175905 | 66 | 305 | 2.0 | 3.0 | 0.00 | 0.00 | 0.00 | 95 | 1021.7 |
| 20260830175400 | 67 | 160 | 3.0 | 5.0 | 0.00 | 0.00 | 0.00 | 94 | 1021.3 |
| 20260830174855 | 67 | 295 | 3.0 | 5.0 | 0.00 | 0.00 | 0.00 | 93 | 1021.7 |
| 20260830174351 | 68 | 333 | 3.0 | 6.0 | 0.00 | 0.00 | 0.00 | 91 | 1021.3 |
| 20260830173846 | 69 | 329 | 3.0 | 3.0 | 0.00 | 0.00 | 0.00 | 87 | 1021.0 |
| 20260830173340 | 71 | 21 | 6.0 | 9.0 | 0.00 | 0.00 | 0.00 | 82 | 1021.7 |
| 20260830172837 | 73 | 264 | 1.0 | 1.0 | 0.00 | 0.00 | 0.00 | 80 | 1021.0 |
| 20260830172333 | 73 | 171 | 1.0 | 1.0 | 0.00 | 0.00 | 0.00 | 81 | 1021.0 |
| 20260830171828 | 73 | 183 | 1.0 | 2.0 | 0.00 | 0.00 | 0.00 | 80 | 1021.0 |
| 20260830171324 | 73 | 155 | 1.0 | 1.0 | 0.00 | 0.00 | 0.00 | 78 | 1021.3 |
| 20260830170819 | 73 | 155 | 0.0 | 0.0 | 0.00 | 0.00 | 0.00 | 77 | 1021.0 |
| 20260830170318 | 73 | 160 | 0.0 | 0.0 | 0.00 | 0.00 | 0.00 | 77 | 1021.0 |
| 20260830165816 | 73 | 165 | 0.0 | 0.0 | 0.00 | 0.00 | 0.00 | 75 | 1021.0 |
| 20260830165313 | 73 | 182 | 1.0 | 2.0 | 0.00 | 0.00 | 0.00 | 75 | 1021.3 |
| 20260830164809 | 74 | 133 | 1.0 | 1.0 | 0.00 | 0.00 | 0.00 | 74 | 1021.0 |
| 20260830164305 | 74 | 139 | 0.0 | 1.0 | 0.00 | 0.00 | 0.00 | 74 | 1021.0 |
| 20260830163801 | 74 | 159 | 0.0 | 1.0 | 0.00 | 0.00 | 0.00 | 74 | 1021.0 |
| 20260830163256 | 74 | 166 | 0.0 | 0.0 | 0.00 | 0.00 | 0.00 | 74 | 1021.0 |
| 20260830162751 | 75 | 166 | 1.0 | 1.0 | 0.00 | 0.00 | 0.00 | 72 | 1021.0 |
| 20260830162248 | 74 | 168 | 0.0 | 0.0 | 0.00 | 0.00 | 0.00 | 74 | 1021.0 |
| 20260830161743 | 74 | 186 | 1.0 | 1.0 | 0.00 | 0.00 | 0.00 | 73 | 1021.0 |
| 20260830161242 | 75 | 166 | 0.0 | 1.0 | 0.00 | 0.00 | 0.00 | 72 | 1021.0 |
| 20260830160738 | 75 | 166 | 0.0 | 1.0 | 0.00 | 0.00 | 0.00 | 72 | 1021.3 |
| 20260830160238 | 75 | 172 | 0.0 | 0.0 | 0.00 | 0.00 | 0.00 | 72 | 1021.0 |
| 20260830155734 | 75 | 131 | 1.0 | 1.0 | 0.00 | 0.00 | 0.00 | 71 | 1021.0 |
| 20260830155229 | 75 | 161 | 1.0 | 1.0 | 0.00 | 0.00 | 0.00 | 72 | 1021.0 |
| 20260830154724 | 75 | 163 | 1.0 | 1.0 | 0.00 | 0.00 | 0.00 | 72 | 1021.0 |
| 20260830154220 | 76 | 202 | 0.0 | 1.0 | 0.00 | 0.00 | 0.00 | 71 | 1021.0 |
| 20260830153718 | 76 | 165 | 0.0 | 0.0 | 0.00 | 0.00 | 0.00 | 72 | 1021.0 |
| 20260830153217 | 75 | 157 | 0.0 | 0.0 | 0.00 | 0.00 | 0.00 | 74 | 1021.0 |
| 20260830152716 | 75 | 165 | 0.0 | 0.0 | 0.00 | 0.00 | 0.00 | 73 | 1021.3 |
| 20260830152216 | 75 | 155 | 0.0 | 0.0 | 0.00 | 0.00 | 0.00 | 74 | 1021.0 |
| 20260830151711 | 74 | 167 | 1.0 | 1.0 | 0.00 | 0.00 | 0.00 | 75 | 1021.3 |
| 20260830151210 | 74 | 166 | 0.0 | 1.0 | 0.00 | 0.00 | 0.00 | 74 | 1021.0 |
| 20260830150706 | 74 | 164 | 0.0 | 0.0 | 0.00 | 0.00 | 0.00 | 73 | 1021.0 |
| 20260830150205 | 75 | 152 | 1.0 | 1.0 | 0.00 | 0.00 | 0.00 | 73 | 1021.3 |
| 20260830145659 | 75 | 133 | 1.0 | 2.0 | 0.00 | 0.00 | 0.00 | 72 | 1021.0 |
| 20260830145155 | 74 | 153 | 1.0 | 2.0 | 0.00 | 0.00 | 0.00 | 76 | 1021.0 |
| 20260830144650 | 74 | 159 | 0.0 | 0.0 | 0.00 | 0.00 | 0.00 | 76 | 1021.3 |
| 20260830144145 | 74 | 162 | 0.0 | 0.0 | 0.00 | 0.00 | 0.00 | 75 | 1021.0 |
| 20260830143642 | 73 | 165 | 0.0 | 0.0 | 0.00 | 0.00 | 0.00 | 75 | 1021.0 |
| 20260830143139 | 73 | 163 | 0.0 | 1.0 | 0.00 | 0.00 | 0.00 | 76 | 1021.0 |
| 20260830142635 | 73 | 155 | 0.0 | 0.0 | 0.00 | 0.00 | 0.00 | 74 | 1021.0 |
| 20260830142129 | 73 | 159 | 0.0 | 0.0 | 0.00 | 0.00 | 0.00 | 73 | 1021.0 |
| 20260830141625 | 72 | 158 | 0.0 | 0.0 | 0.00 | 0.00 | 0.00 | 74 | 1020.6 |
| 20260830141120 | 73 | 170 | 1.0 | 1.0 | 0.00 | 0.00 | 0.00 | 73 | 1021.0 |
| 20260830140615 | 72 | 161 | 1.0 | 1.0 | 0.00 | 0.00 | 0.00 | 75 | 1021.0 |
| 20260830140115 | 72 | 171 | 1.0 | 1.0 | 0.00 | 0.00 | 0.00 | 74 | 1021.0 |
| 20260830135610 | 72 | 162 | 0.0 | 1.0 | 0.00 | 0.00 | 0.00 | 74 | 1021.0 |
| 20260830135105 | 72 | 136 | 0.0 | 1.0 | 0.00 | 0.00 | 0.00 | 74 | 1021.0 |
| 20260830134601 | 72 | 103 | 3.0 | 5.0 | 0.00 | 0.00 | 0.00 | 74 | 1021.0 |
| 20260830134056 | 72 | 161 | 0.0 | 0.0 | 0.00 | 0.00 | 0.00 | 75 | 1021.0 |
| 20260830133552 | 72 | 145 | 0.0 | 1.0 | 0.00 | 0.00 | 0.00 | 77 | 1021.0 |
| 20260830133046 | 72 | 164 | 0.0 | 0.0 | 0.00 | 0.00 | 0.00 | 77 | 1021.0 |
| 20260830132543 | 71 | 164 | 0.0 | 0.0 | 0.00 | 0.00 | 0.00 | 79 | 1021.0 |
| 20260830132038 | 71 | 159 | 0.0 | 0.0 | 0.00 | 0.00 | 0.00 | 79 | 1021.0 |
| 20260830131537 | 71 | 157 | 0.0 | 0.0 | 0.00 | 0.00 | 0.00 | 80 | 1021.0 |
| 20260830131032 | 71 | 161 | 0.0 | 0.0 | 0.00 | 0.00 | 0.00 | 79 | 1021.0 |
| 20260830130526 | 70 | 160 | 0.0 | 0.0 | 0.00 | 0.00 | 0.00 | 80 | 1020.6 |
| 20260830130022 | 70 | 159 | 0.0 | 0.0 | 0.00 | 0.00 | 0.00 | 79 | 1021.0 |
| 20260830125516 | 70 | 156 | 0.0 | 0.0 | 0.00 | 0.00 | 0.00 | 79 | 1021.0 |
| 20260830125014 | 70 | 161 | 0.0 | 0.0 | 0.00 | 0.00 | 0.00 | 78 | 1021.0 |
| 20260830124509 | 70 | 156 | 0.0 | 0.0 | 0.00 | 0.00 | 0.00 | 79 | 1021.0 |
| 20260830124005 | 69 | 162 | 0.0 | 0.0 | 0.00 | 0.00 | 0.00 | 79 | 1021.0 |
| 20260830123502 | 69 | 151 | 0.0 | 0.0 | 0.00 | 0.00 | 0.00 | 82 | 1021.0 |
| 20260830123000 | 69 | 159 | 0.0 | 0.0 | 0.00 | 0.00 | 0.00 | 83 | 1021.0 |
| 20260830122458 | 69 | 156 | 0.0 | 0.0 | 0.00 | 0.00 | 0.00 | 83 | 1021.3 |
| 20260830121953 | 68 | 156 | 0.0 | 0.0 | 0.00 | 0.00 | 0.00 | 83 | 1021.0 |
| 20260830121449 | 68 | 155 | 0.0 | 0.0 | 0.00 | 0.00 | 0.00 | 82 | 1021.3 |
| 20260830120943 | 68 | 167 | 0.0 | 0.0 | 0.00 | 0.00 | 0.00 | 82 | 1021.0 |
| 20260830120438 | 68 | 157 | 0.0 | 0.0 | 0.00 | 0.00 | 0.00 | 82 | 1021.0 |
| 20260830115935 | 68 | 170 | 0.0 | 0.0 | 0.00 | 0.00 | 0.00 | 81 | 1021.0 |
| 20260830115431 | 68 | 164 | 0.0 | 0.0 | 0.00 | 0.00 | 0.00 | 80 | 1021.0 |
| 20260830114926 | 68 | 155 | 0.0 | 0.0 | 0.00 | 0.00 | 0.00 | 80 | 1021.0 |
| 20260830114423 | 68 | 156 | 0.0 | 0.0 | 0.00 | 0.00 | 0.00 | 78 | 1021.0 |
| 20260830113922 | 68 | 160 | 0.0 | 0.0 | 0.00 | 0.00 | 0.00 | 78 | 1021.0 |
| 20260830113417 | 68 | 161 | 0.0 | 0.0 | 0.00 | 0.00 | 0.00 | 78 | 1021.0 |
| 20260830112913 | 68 | 160 | 0.0 | 0.0 | 0.00 | 0.00 | 0.00 | 79 | 1021.3 |
| 20260830112409 | 68 | 156 | 0.0 | 0.0 | 0.00 | 0.00 | 0.00 | 79 | 1021.0 |
| 20260830111905 | 67 | 158 | 0.0 | 0.0 | 0.00 | 0.00 | 0.00 | 79 | 1021.0 |
| 20260830111400 | 68 | 158 | 0.0 | 0.0 | 0.00 | 0.00 | 0.00 | 78 | 1021.0 |
| 20260830110855 | 68 | 156 | 0.0 | 0.0 | 0.00 | 0.00 | 0.00 | 77 | 1021.0 |
| 20260830110351 | 68 | 161 | 0.0 | 0.0 | 0.00 | 0.00 | 0.00 | 76 | 1021.0 |
| 20260830105850 | 68 | 159 | 0.0 | 0.0 | 0.00 | 0.00 | 0.00 | 75 | 1021.0 |
| 20260830105347 | 69 | 161 | 0.0 | 0.0 | 0.00 | 0.00 | 0.00 | 75 | 1021.0 |
| 20260830104843 | 69 | 155 | 0.0 | 1.0 | 0.00 | 0.00 | 0.00 | 75 | 1021.0 |
| 20260830104339 | 69 | 172 | 1.0 | 2.0 | 0.00 | 0.00 | 0.00 | 74 | 1021.3 |
| 20260830103838 | 69 | 156 | 1.0 | 1.0 | 0.00 | 0.00 | 0.00 | 74 | 1021.3 |
| 20260830103335 | 69 | 166 | 0.0 | 0.0 | 0.00 | 0.00 | 0.00 | 74 | 1021.3 |
| 20260830102832 | 68 | 178 | 1.0 | 2.0 | 0.00 | 0.00 | 0.00 | 74 | 1021.3 |
| 20260830102328 | 68 | 157 | 0.0 | 0.0 | 0.00 | 0.00 | 0.00 | 75 | 1021.3 |
| 20260830101824 | 68 | 168 | 0.0 | 0.0 | 0.00 | 0.00 | 0.00 | 75 | 1021.3 |
| 20260830101319 | 69 | 157 | 0.0 | 0.0 | 0.00 | 0.00 | 0.00 | 75 | 1021.3 |
| 20260830100819 | 69 | 160 | 1.0 | 1.0 | 0.00 | 0.00 | 0.00 | 74 | 1021.3 |
| 20260830100319 | 69 | 173 | 2.0 | 3.0 | 0.00 | 0.00 | 0.00 | 74 | 1021.3 |
| 20260830095817 | 68 | 143 | 0.0 | 1.0 | 0.00 | 0.00 | 0.00 | 74 | 1021.3 |
| 20260830095314 | 68 | 153 | 0.0 | 0.0 | 0.00 | 0.00 | 0.00 | 75 | 1021.0 |
| 20260830094809 | 68 | 158 | 0.0 | 0.0 | 0.00 | 0.00 | 0.00 | 75 | 1021.3 |
| 20260830094306 | 68 | 153 | 1.0 | 1.0 | 0.00 | 0.00 | 0.00 | 76 | 1021.7 |
| 20260830093801 | 68 | 158 | 0.0 | 0.0 | 0.00 | 0.00 | 0.00 | 76 | 1021.3 |
| 20260830093256 | 68 | 164 | 0.0 | 1.0 | 0.00 | 0.00 | 0.00 | 75 | 1021.3 |
| 20260830092756 | 69 | 157 | 0.0 | 1.0 | 0.00 | 0.00 | 0.00 | 75 | 1021.3 |
| 20260830092253 | 69 | 172 | 0.0 | 0.0 | 0.00 | 0.00 | 0.00 | 74 | 1021.3 |
| 20260830091749 | 69 | 130 | 1.0 | 1.0 | 0.00 | 0.00 | 0.00 | 74 | 1021.3 |
| 20260830091248 | 69 | 161 | 0.0 | 0.0 | 0.00 | 0.00 | 0.00 | 73 | 1021.3 |
| 20260830090748 | 70 | 168 | 0.0 | 0.0 | 0.00 | 0.00 | 0.00 | 73 | 1021.3 |
| 20260830090243 | 70 | 174 | 0.0 | 1.0 | 0.00 | 0.00 | 0.00 | 73 | 1021.3 |
| 20260830085742 | 70 | 175 | 1.0 | 2.0 | 0.00 | 0.00 | 0.00 | 72 | 1021.7 |
| 20260830085238 | 70 | 187 | 1.0 | 2.0 | 0.00 | 0.00 | 0.00 | 73 | 1021.7 |
| 20260830084733 | 70 | 161 | 1.0 | 1.0 | 0.00 | 0.00 | 0.00 | 73 | 1022.1 |
| 20260830084229 | 69 | 208 | 1.0 | 3.0 | 0.00 | 0.00 | 0.00 | 73 | 1022.1 |
| 20260830083724 | 69 | 184 | 1.0 | 1.0 | 0.00 | 0.00 | 0.00 | 73 | 1021.7 |
| 20260830083220 | 69 | 175 | 1.0 | 1.0 | 0.00 | 0.00 | 0.00 | 73 | 1021.7 |
| 20260830082719 | 69 | 169 | 0.0 | 1.0 | 0.00 | 0.00 | 0.00 | 75 | 1021.7 |
| 20260830082215 | 69 | 166 | 0.0 | 1.0 | 0.00 | 0.00 | 0.00 | 75 | 1022.1 |
| 20260830081710 | 68 | 161 | 1.0 | 1.0 | 0.00 | 0.00 | 0.00 | 76 | 1022.1 |
| 20260830081209 | 68 | 173 | 0.0 | 0.0 | 0.00 | 0.00 | 0.00 | 76 | 1021.7 |
| 20260830080704 | 69 | 164 | 1.0 | 1.0 | 0.00 | 0.00 | 0.00 | 75 | 1021.3 |
| 20260830080200 | 69 | 162 | 0.0 | 0.0 | 0.00 | 0.00 | 0.00 | 75 | 1022.1 |
| 20260830075659 | 68 | 158 | 1.0 | 1.0 | 0.00 | 0.00 | 0.00 | 76 | 1021.7 |
| 20260830075155 | 68 | 166 | 0.0 | 0.0 | 0.00 | 0.00 | 0.00 | 76 | 1021.7 |
| 20260830074650 | 68 | 173 | 0.0 | 1.0 | 0.00 | 0.00 | 0.00 | 77 | 1021.7 |
| 20260830074146 | 68 | 167 | 1.0 | 1.0 | 0.00 | 0.00 | 0.00 | 77 | 1022.1 |
| 20260830073642 | 67 | 138 | 1.0 | 1.0 | 0.00 | 0.00 | 0.00 | 78 | 1021.7 |
| 20260830073137 | 67 | 147 | 0.0 | 0.0 | 0.00 | 0.00 | 0.00 | 80 | 1022.1 |
| 20260830072632 | 67 | 160 | 0.0 | 0.0 | 0.00 | 0.00 | 0.00 | 81 | 1022.1 |
| 20260830072132 | 66 | 152 | 0.0 | 1.0 | 0.00 | 0.00 | 0.00 | 81 | 1021.7 |
| 20260830071628 | 65 | 160 | 0.0 | 0.0 | 0.00 | 0.00 | 0.00 | 84 | 1021.7 |
| 20260830071126 | 64 | 154 | 0.0 | 0.0 | 0.00 | 0.00 | 0.00 | 88 | 1022.1 |
| 20260830070621 | 64 | 161 | 0.0 | 0.0 | 0.00 | 0.00 | 0.00 | 87 | 1021.7 |
| 20260830070116 | 64 | 161 | 0.0 | 0.0 | 0.00 | 0.00 | 0.00 | 87 | 1021.7 |
| 20260830065615 | 64 | 156 | 0.0 | 0.0 | 0.00 | 0.00 | 0.00 | 87 | 1021.7 |
| 20260830065114 | 65 | 157 | 0.0 | 0.0 | 0.00 | 0.00 | 0.00 | 87 | 1022.1 |
| 20260830064613 | 65 | 166 | 0.0 | 0.0 | 0.00 | 0.00 | 0.00 | 87 | 1022.1 |
| 20260830064109 | 64 | 157 | 0.0 | 0.0 | 0.00 | 0.00 | 0.00 | 87 | 1021.7 |
| 20260830063603 | 64 | 161 | 0.0 | 0.0 | 0.00 | 0.00 | 0.00 | 88 | 1022.1 |
| 20260830063102 | 63 | 161 | 0.0 | 0.0 | 0.00 | 0.00 | 0.00 | 91 | 1022.1 |
| 20260830062603 | 63 | 161 | 0.0 | 0.0 | 0.00 | 0.00 | 0.00 | 91 | 1022.1 |
| 20260830062057 | 63 | 159 | 0.0 | 0.0 | 0.00 | 0.00 | 0.00 | 92 | 1022.1 |
| 20260830061557 | 63 | 157 | 0.0 | 0.0 | 0.00 | 0.00 | 0.00 | 92 | 1022.1 |
| 20260830061054 | 63 | 155 | 0.0 | 0.0 | 0.00 | 0.00 | 0.00 | 92 | 1022.1 |
| 20260830060549 | 62 | 156 | 0.0 | 0.0 | 0.00 | 0.00 | 0.00 | 92 | 1022.1 |
| 20260830060046 | 62 | 156 | 0.0 | 0.0 | 0.00 | 0.00 | 0.00 | 92 | 1022.1 |
| 20260830055541 | 62 | 159 | 0.0 | 0.0 | 0.00 | 0.00 | 0.00 | 92 | 1021.7 |
| 20260830055037 | 62 | 159 | 0.0 | 0.0 | 0.00 | 0.00 | 0.00 | 92 | 1022.1 |
| 20260830054532 | 63 | 159 | 0.0 | 0.0 | 0.00 | 0.00 | 0.00 | 92 | 1022.1 |
| 20260830054028 | 63 | 159 | 0.0 | 0.0 | 0.00 | 0.00 | 0.00 | 92 | 1022.1 |
| 20260830053523 | 62 | 156 | 0.0 | 0.0 | 0.00 | 0.00 | 0.00 | 93 | 1022.1 |
| 20260830053022 | 62 | 156 | 0.0 | 0.0 | 0.00 | 0.00 | 0.00 | 93 | 1022.1 |
| 20260830052518 | 62 | 156 | 0.0 | 0.0 | 0.00 | 0.00 | 0.00 | 93 | 1022.1 |
| 20260830052018 | 62 | 156 | 0.0 | 0.0 | 0.00 | 0.00 | 0.00 | 93 | 1022.1 |
| 20260830051513 | 62 | 156 | 0.0 | 0.0 | 0.00 | 0.00 | 0.00 | 93 | 1022.1 |
| 20260830051008 | 62 | 156 | 0.0 | 0.0 | 0.00 | 0.00 | 0.00 | 93 | 1022.1 |
| 20260830050503 | 62 | 156 | 0.0 | 0.0 | 0.00 | 0.00 | 0.00 | 93 | 1022.1 |
| 20260830050001 | 62 | 156 | 0.0 | 0.0 | 0.00 | 0.00 | 0.00 | 93 | 1022.1 |
| 20260830045456 | 62 | 156 | 0.0 | 0.0 | 0.00 | 0.00 | 0.00 | 93 | 1022.1 |
| 20260830044955 | 62 | 156 | 0.0 | 0.0 | 0.00 | 0.00 | 0.00 | 93 | 1022.1 |
| 20260830044451 | 62 | 156 | 0.0 | 0.0 | 0.00 | 0.00 | 0.00 | 93 | 1022.1 |
| 20260830043946 | 62 | 156 | 0.0 | 0.0 | 0.00 | 0.00 | 0.00 | 93 | 1022.1 |
| 20260830043440 | 62 | 156 | 0.0 | 0.0 | 0.00 | 0.00 | 0.00 | 93 | 1022.1 |
| 20260830042939 | 61 | 159 | 0.0 | 0.0 | 0.00 | 0.00 | 0.00 | 93 | 1022.4 |
| 20260830042433 | 61 | 159 | 0.0 | 0.0 | 0.00 | 0.00 | 0.00 | 93 | 1022.4 |
| 20260830041932 | 61 | 159 | 0.0 | 0.0 | 0.00 | 0.00 | 0.00 | 93 | 1022.4 |
| 20260830041431 | 61 | 159 | 0.0 | 0.0 | 0.00 | 0.00 | 0.00 | 93 | 1022.1 |
| 20260830040926 | 61 | 159 | 0.0 | 0.0 | 0.00 | 0.00 | 0.00 | 93 | 1022.1 |
| 20260830040422 | 61 | 159 | 0.0 | 0.0 | 0.00 | 0.00 | 0.00 | 92 | 1022.4 |
| 20260830035921 | 61 | 159 | 0.0 | 0.0 | 0.00 | 0.00 | 0.00 | 92 | 1022.1 |
| 20260830035420 | 62 | 159 | 0.0 | 0.0 | 0.00 | 0.00 | 0.00 | 92 | 1022.1 |
| 20260830034916 | 62 | 160 | 0.0 | 0.0 | 0.00 | 0.00 | 0.00 | 92 | 1022.1 |
| 20260830034412 | 62 | 159 | 0.0 | 0.0 | 0.00 | 0.00 | 0.00 | 92 | 1022.1 |
| 20260830033906 | 62 | 159 | 0.0 | 0.0 | 0.00 | 0.00 | 0.00 | 91 | 1022.1 |
| 20260830033401 | 62 | 159 | 0.0 | 0.0 | 0.00 | 0.00 | 0.00 | 91 | 1022.1 |
| 20260830032856 | 62 | 159 | 0.0 | 0.0 | 0.00 | 0.00 | 0.00 | 91 | 1022.1 |
| 20260830032355 | 62 | 159 | 0.0 | 0.0 | 0.00 | 0.00 | 0.00 | 90 | 1022.1 |
| 20260830031851 | 62 | 159 | 0.0 | 0.0 | 0.00 | 0.00 | 0.00 | 90 | 1022.1 |
| 20260830031346 | 63 | 159 | 0.0 | 0.0 | 0.00 | 0.00 | 0.00 | 90 | 1022.1 |
| 20260830030841 | 63 | 160 | 0.0 | 0.0 | 0.00 | 0.00 | 0.00 | 90 | 1022.1 |
| 20260830030337 | 63 | 160 | 0.0 | 0.0 | 0.00 | 0.00 | 0.00 | 90 | 1022.1 |
| 20260830025837 | 63 | 160 | 0.0 | 0.0 | 0.00 | 0.00 | 0.00 | 90 | 1022.1 |
| 20260830025336 | 63 | 159 | 0.0 | 0.0 | 0.00 | 0.00 | 0.00 | 89 | 1022.4 |
| 20260830024830 | 63 | 159 | 0.0 | 0.0 | 0.00 | 0.00 | 0.00 | 89 | 1022.4 |
| 20260830024325 | 64 | 159 | 0.0 | 0.0 | 0.00 | 0.00 | 0.00 | 89 | 1022.1 |
| 20260830023823 | 64 | 160 | 0.0 | 0.0 | 0.00 | 0.00 | 0.00 | 89 | 1022.4 |
| 20260830023322 | 64 | 160 | 0.0 | 0.0 | 0.00 | 0.00 | 0.00 | 88 | 1022.4 |
| 20260830022821 | 64 | 159 | 0.0 | 0.0 | 0.00 | 0.00 | 0.00 | 87 | 1022.4 |
| 20260830022316 | 64 | 159 | 0.0 | 0.0 | 0.00 | 0.00 | 0.00 | 87 | 1022.4 |
| 20260830021816 | 65 | 159 | 0.0 | 0.0 | 0.00 | 0.00 | 0.00 | 86 | 1022.4 |
| 20260830021312 | 65 | 159 | 0.0 | 0.0 | 0.00 | 0.00 | 0.00 | 86 | 1022.4 |
| 20260830020811 | 65 | 160 | 0.0 | 0.0 | 0.00 | 0.00 | 0.00 | 85 | 1022.4 |
| 20260830020306 | 65 | 160 | 0.0 | 0.0 | 0.00 | 0.00 | 0.00 | 85 | 1022.4 |
| 20260830015806 | 65 | 157 | 0.0 | 0.0 | 0.00 | 0.00 | 0.00 | 85 | 1022.4 |
| 20260830015301 | 66 | 156 | 0.0 | 0.0 | 0.00 | 0.00 | 0.00 | 84 | 1022.1 |
| 20260830014757 | 65 | 156 | 0.0 | 0.0 | 0.00 | 0.00 | 0.00 | 84 | 1022.1 |
| 20260830014253 | 65 | 156 | 0.0 | 0.0 | 0.00 | 0.00 | 0.00 | 84 | 1022.1 |
| 20260830013748 | 65 | 156 | 0.0 | 0.0 | 0.00 | 0.00 | 0.00 | 84 | 1022.4 |
| 20260830013243 | 65 | 156 | 0.0 | 0.0 | 0.00 | 0.00 | 0.00 | 84 | 1022.4 |
| 20260830012738 | 66 | 156 | 0.0 | 0.0 | 0.00 | 0.00 | 0.00 | 84 | 1022.4 |
| 20260830012234 | 66 | 154 | 0.0 | 0.0 | 0.00 | 0.00 | 0.00 | 84 | 1022.1 |
| 20260830011730 | 65 | 157 | 0.0 | 0.0 | 0.00 | 0.00 | 0.00 | 84 | 1022.4 |
| 20260830011226 | 65 | 157 | 0.0 | 0.0 | 0.00 | 0.00 | 0.00 | 84 | 1022.8 |
| 20260830010721 | 66 | 157 | 0.0 | 0.0 | 0.00 | 0.00 | 0.00 | 83 | 1022.4 |
| 20260830010220 | 66 | 157 | 0.0 | 0.0 | 0.00 | 0.00 | 0.00 | 83 | 1022.4 |